This demonstration page uses our WeatherBlox Daily Observations layout. Learn more.

Left ArrowRight Arrow

38.20091, -84.87328

Hourly Observations for September 6, 2021

Temp ( °F °C ) Dew Point ( °F °C ) Humidity (%) Winds ( mph kmh ) Pressure ( in mb ) Visibility ( mi km ) Precip ( " mm )
12:53 am 00:53 Clear 61 16.1 60 15.6 97 97 Calm 29.97 1015 9 14 0.00 0.00
1:53 am 01:53 Clear 60 15.6 59 15 96 96 Calm 29.97 1015 10 16 0.00 0.00
1:59 am 01:59 Mostly Clear with Mist and Fog 60 15.6 59 15 96 96 NNW 3 6 29.97 1015 3 4 0.00 0.00
2:15 am 02:15 Clear 60 15.6 59 15 96 96 Calm 29.97 1015 7 11 0.00 0.00
2:53 am 02:53 Clear 60 15.6 59 15 96 96 Calm 29.96 1015 10 16 0.00 0.00
3:53 am 03:53 Clear 58 14.4 58 14.4 100 100 Calm 29.96 1015 9 14 0.00 0.00
4:53 am 04:53 Clear 58 14.4 57 13.9 97 97 Calm 29.96 1015 10 16 0.00 0.00
5:53 am 05:53 Clear 57 13.9 56 13.3 96 96 Calm 29.97 1015 10 16 0.00 0.00
6:53 am 06:53 Clear 56 13.3 55 12.8 97 97 Calm 29.98 1015 10 16 0.00 0.00
7:53 am 07:53 Sunny 57 13.9 56 13.3 96 96 Calm 30.00 1016 10 16 0.00 0.00
8:53 am 08:53 Sunny 63 17.2 60 15.6 90 90 Calm 30.01 1016 10 16 0.00 0.00
9:53 am 09:53 Sunny 71 21.7 60 15.6 68 68 NW 3 6 30.02 1017 10 16 0.00 0.00
10:53 am 10:53 Sunny 75 23.9 61 16.1 62 62 NNW 5 7 30.03 1017 10 16 0.00 0.00
11:53 am 11:53 Sunny 78 25.6 59 15 52 52 VRB 3 6 30.03 1017 10 16 0.00 0.00
12:53 pm 12:53 Sunny 81 27.2 56 13.3 42 42 WNW 6 9 30.02 1017 10 16 0.00 0.00
1:53 pm 13:53 Sunny 82 27.8 53 11.7 37 37 undefined N/A 30.01 1016 10 16 0.00 0.00
2:53 pm 14:53 Sunny 83 28.3 54 12.2 37 37 undefined N/A 29.99 1016 10 16 0.00 0.00
3:53 pm 15:53 Sunny 83 28.3 54 12.2 37 37 WSW 5 7 29.97 1015 10 16 0.00 0.00
4:53 pm 16:53 Sunny 83 28.3 55 12.8 38 38 W 6 9 29.96 1015 10 16 0.00 0.00
5:53 pm 17:53 Sunny 82 27.8 55 12.8 40 40 SW 5 7 29.96 1014 10 16 0.00 0.00
6:53 pm 18:53 Sunny 79 26.1 58 14.4 49 49 SW 7 11 29.95 1014 10 16 0.00 0.00
7:53 pm 19:53 Sunny 73 22.8 63 17.2 71 71 SSW 3 6 29.95 1014 10 16 0.00 0.00
8:53 pm 20:53 Clear 68 20 62 16.7 81 81 WSW 3 6 29.96 1015 10 16 0.00 0.00
9:53 pm 21:53 Clear 66 18.9 61 16.1 84 84 Calm 29.98 1015 10 16 0.00 0.00
10:53 pm 22:53 Clear 64 17.8 61 16.1 90 90 Calm 29.98 1015 10 16 0.00 0.00
11:53 pm 23:53 Clear 63 17.2 61 16.1 93 93 Calm 29.98 1015 10 16 0.00 0.00

Powered by AerisWeather